Meadville, PA

10:47 AM EST on January 24, 2017 (GMT -0500)
Port Meadville

Weather History for KGKJ - November, 2013

Change the Weather History Date:

Thursday, November 28, 2013

  Actual Average Record
Temperature  
Mean Temperature 22 °F -  
Max Temperature 24 °F 47 °F 70 °F (1990)
Min Temperature 19 °F 31 °F -1 °F (1950)
Degree Days  
Heating Degree Days 44    
Moisture  
Dew Point 17 °F    
Average Humidity 81    
Maximum Humidity 93    
Minimum Humidity 62    
Precipitation  
Precipitation 0.00 in - - ()
Sea Level Pressure  
Sea Level Pressure 30.25 in    
Wind  
Wind Speed 8 mph (SW)    
Max Wind Speed 12 mph    
Max Gust Speed 18 mph    
Visibility 7 miles    
Events Snow    
Averages and records for this station are not official NWS values.
T = Trace of Precipitation, MM = Missing Value Source: NWS Daily Summary

Daily Weather History Graph

Daily Weather History Graph

Search for Another Location

Airport or City:

Trip Planner

Search our weather history database for the weather conditions in past years. The results will help you decide how hot, cold, wet, or windy it might be!

Date:

Astronomy

Nov. 28, 2013 Rise Set
Actual Time 7:25 AM EST 4:52 PM EST
Civil Twilight 6:54 AM EST 5:23 PM EST
Nautical Twilight 6:20 AM EST 5:57 PM EST
Astronomical Twilight 5:46 AM EST 6:30 PM EST
Moon 2:22 AM EST (11/28) 2:04 PM EST (11/28)
Length of Visible Light 10h 28m
Length of Day
9h 27m
Waning Crescent, 22% of the Moon is Illuminated
Nov 28
Waning Crescent
Dec 2
New
Dec 9
First Quarter
Dec 17
Full
Dec 25
Last Quarter

Hourly Weather History & Observations

Time (EST) Temp. Windchill Dew Point Humidity Pressure Visibility Wind Dir Wind Speed Gust Speed Precip Events Conditions
12:53 AM 21.9 °F 11.7 °F 17.1 °F 82% 30.09 in 4.0 mi West 9.2 mph - 0.00 in Snow Light Snow
1:50 AM 21.2 °F 10.9 °F 17.6 °F 86% 30.06 in 2.5 mi West 9.2 mph - 0.00 in Snow Light Snow
1:53 AM 21.9 °F 11.0 °F 17.1 °F 82% 30.12 in 2.5 mi West 10.4 mph - 0.00 in Snow Light Snow
2:30 AM 21.2 °F 10.1 °F 17.6 °F 86% 30.08 in 1.5 mi West 10.4 mph - 0.00 in Snow Light Snow
2:42 AM 21.2 °F 10.1 °F 17.6 °F 86% 30.09 in 2.0 mi West 10.4 mph 18.4 mph 0.00 in Snow Light Snow
2:49 AM 21.2 °F 9.5 °F 17.6 °F 86% 30.09 in 1.5 mi West 11.5 mph - 0.00 in Snow Light Snow
2:53 AM 21.0 °F 10.6 °F 18.0 °F 88% 30.16 in 1.5 mi West 9.2 mph - 0.00 in Snow Light Snow
3:04 AM 21.2 °F 9.5 °F 17.6 °F 86% 30.11 in 1.2 mi West 11.5 mph - 0.00 in Snow Light Snow
3:39 AM 21.2 °F 11.7 °F 17.6 °F 86% 30.12 in 3.0 mi West 8.1 mph - 0.00 in Snow Light Snow
3:44 AM 21.2 °F 12.6 °F 17.6 °F 86% 30.12 in 1.8 mi West 6.9 mph - 0.00 in Snow Light Snow
3:53 AM 21.0 °F 9.9 °F 18.0 °F 88% 30.19 in 1.2 mi West 10.4 mph - 0.00 in Snow Light Snow
4:09 AM 21.2 °F 10.9 °F 17.6 °F 86% 30.13 in 2.5 mi West 9.2 mph - 0.00 in Snow Light Snow
4:33 AM 21.2 °F 14.9 °F 17.6 °F 86% 30.14 in 5.0 mi SW 4.6 mph - 0.00 in Snow Light Snow
4:53 AM 21.0 °F 12.4 °F 18.0 °F 88% 30.22 in 3.0 mi WSW 6.9 mph - 0.00 in Snow Light Snow
5:15 AM 21.2 °F 11.7 °F 17.6 °F 86% 30.16 in 5.0 mi WSW 8.1 mph - 0.00 in Snow Light Snow
5:26 AM 21.2 °F 13.6 °F 17.6 °F 86% 30.16 in 5.0 mi SW 5.8 mph - 0.00 in Snow Light Snow
5:37 AM 19.4 °F 10.4 °F 17.6 °F 93% 30.17 in 8.0 mi SW 6.9 mph - 0.00 in Snow Light Snow
5:53 AM 19.9 °F 10.1 °F 17.1 °F 89% 30.24 in 9.0 mi WSW 8.1 mph - 0.00 in Snow Light Snow
6:53 AM 19.9 °F 11.1 °F 16.0 °F 85% 30.27 in 10.0 mi SW 6.9 mph - 0.00 in   Overcast
7:03 AM 19.4 °F 11.5 °F 15.8 °F 86% 30.21 in 10.0 mi WSW 5.8 mph - N/A   Overcast
7:53 AM 19.0 °F 11.1 °F 15.1 °F 85% 30.29 in 10.0 mi WSW 5.8 mph - N/A   Mostly Cloudy
8:53 AM 19.9 °F 10.1 °F 15.1 °F 81% 30.33 in 10.0 mi SW 8.1 mph - N/A   Scattered Clouds
9:30 AM 19.4 °F 9.5 °F 14.0 °F 80% 30.27 in 9.0 mi WSW 8.1 mph - 0.00 in   Overcast
9:53 AM 19.9 °F 11.1 °F 12.9 °F 74% 30.35 in 10.0 mi SW 6.9 mph - 0.00 in   Overcast
10:23 AM 21.2 °F 10.9 °F 14.0 °F 74% 30.29 in 10.0 mi WSW 9.2 mph - N/A   Scattered Clouds
10:53 AM 21.9 °F 10.4 °F 12.9 °F 68% 30.36 in 10.0 mi SW 11.5 mph - N/A   Clear
11:53 AM 24.1 °F 13.1 °F 12.9 °F 62% 30.34 in 10.0 mi West 11.5 mph - N/A   Scattered Clouds
12:53 PM 24.1 °F 16.0 °F 15.1 °F 69% 30.33 in 10.0 mi Variable 6.9 mph - N/A   Overcast
1:25 PM 23.0 °F 13.9 °F 17.6 °F 80% 30.26 in 9.0 mi SSW 8.1 mph - 0.00 in Snow Light Snow
1:53 PM 24.1 °F 16.0 °F 17.1 °F 75% 30.32 in 10.0 mi SSW 6.9 mph - 0.00 in   Overcast
2:53 PM 24.1 °F 16.0 °F 16.0 °F 71% 30.31 in 10.0 mi SSW 6.9 mph - N/A   Overcast
3:53 PM 23.0 °F 13.9 °F 16.0 °F 74% 30.33 in 10.0 mi South 8.1 mph - N/A   Overcast
4:53 PM 23.0 °F 15.8 °F 16.0 °F 74% 30.34 in 10.0 mi Variable 5.8 mph - N/A   Overcast
5:53 PM 23.0 °F 18.4 °F 15.1 °F 72% 30.36 in 10.0 mi South 3.5 mph - N/A   Overcast
6:53 PM 23.0 °F - 15.1 °F 72% 30.38 in 10.0 mi Calm Calm - N/A   Overcast
7:53 PM 23.0 °F 15.8 °F 16.0 °F 74% 30.39 in 10.0 mi South 5.8 mph - N/A   Overcast
8:53 PM 23.0 °F 14.7 °F 17.1 °F 78% 30.40 in 10.0 mi South 6.9 mph - N/A   Overcast
9:45 PM 23.0 °F 17.0 °F 17.6 °F 80% 30.33 in 10.0 mi South 4.6 mph - N/A   Overcast
9:53 PM 23.0 °F 15.8 °F 18.0 °F 81% 30.40 in 10.0 mi South 5.8 mph - N/A   Overcast
10:18 PM 23.0 °F 17.0 °F 17.6 °F 80% 30.33 in 10.0 mi South 4.6 mph - N/A   Overcast
10:53 PM 23.0 °F 15.8 °F 18.0 °F 81% 30.40 in 10.0 mi South 5.8 mph - N/A   Overcast
11:53 PM 23.0 °F 14.7 °F 18.0 °F 81% 30.41 in 10.0 mi SSW 6.9 mph - N/A   Overcast